DW1234 Weather Reports


time (UTC)temp
F
wind
direction
speed
knots
gust
knots
rain 1hr
in
rain 24hr
in
rain mn
in
humidity
%
barometer
mb
20260505083235 50 258 2.6 4.3 0.01 0.01 0.01 75 1010.6
20260505083006 49 264 2.6 4.3 0.01 0.01 0.01 75 1009.6
20260505082806 50 259 2.6 7.0 0.01 0.01 0.01 75 1010.6
20260505082231 50 280 3.5 7.0 0.01 0.01 0.01 74 1010.7
20260505081742 50 289 4.3 6.1 0.01 0.01 0.01 72 1010.5
20260505081554 49 288 2.6 4.3 0.01 0.01 0.01 71 1009.4
20260505081226 50 292 2.6 3.5 0.01 0.01 0.01 71 1010.3
20260505080736 50 320 1.7 2.6 0.00 0.00 0.00 70 1009.9
20260505080255 50 320 1.7 4.3 0.00 0.00 0.00 69 1009.8
20260505080038 49 329 1.7 4.3 0.00 0.00 0.00 70 1008.7
20260505075751 50 345 2.6 4.3 0.00 0.00 0.00 70 1009.9
20260505075308 50 311 3.5 4.3 0.00 0.00 0.00 69 1010.0
20260505074830 50 299 2.6 3.5 0.00 0.00 0.00 69 1009.9
20260505074545 50 317 1.7 3.5 0.00 0.00 0.00 69 1008.9
20260505074234 50 317 1.7 3.5 0.00 0.00 0.00 69 1009.8
20260505073746 50 317 1.7 3.5 0.00 0.00 0.00 68 1009.8
20260505073230 50 284 3.5 3.5 0.00 0.00 0.00 68 1010.1
20260505073046 50 284 2.6 3.5 0.00 0.00 0.00 67 1009.2
20260505072736 51 280 1.7 2.6 0.00 0.00 0.00 67 1010.2
20260505072247 51 5 0.9 2.6 0.00 0.00 0.00 66 1009.8
20260505071729 51 5 0.9 2.6 0.00 0.00 0.00 65 1009.8
20260505071556 50 5 0.9 3.5 0.00 0.00 0.00 65 1008.8
20260505071302 51 5 1.7 3.5 0.00 0.00 0.00 64 1009.8
20260505070722 51 11 1.7 2.6 0.00 0.00 0.00 64 1009.7
20260505070233 51 11 0.9 2.6 0.00 0.00 0.00 63 1009.9
20260505070031 50 44 0.9 2.6 0.00 0.00 0.00 63 1008.9
20260505065742 51 34 0.9 2.6 0.00 0.00 0.00 63 1009.8
20260505065230 51 5 0.9 2.6 0.00 0.00 0.00 63 1009.9
20260505064743 51 5 1.7 3.5 0.00 0.00 0.00 62 1009.8
20260505064512 51 5 0.9 3.5 0.00 0.00 0.00 62 1008.8
20260505064229 51 5 1.7 4.3 0.00 0.00 0.00 62 1009.8
20260505063739 52 348 2.6 7.0 0.00 0.00 0.00 61 1010.0
20260505063250 52 26 4.3 7.0 0.00 0.00 0.00 61 1009.7
20260505063003 51 15 4.3 7.8 0.00 0.00 0.00 60 1008.9
20260505062732 52 5 4.3 9.6 0.00 0.00 0.00 60 1009.9
20260505062242 52 347 6.1 10.4 0.00 0.00 0.00 58 1010.1
20260505061726 52 5 7.8 10.4 0.00 0.00 0.00 56 1010.3
20260505061509 52 14 7.8 12.2 0.00 0.00 0.00 56 1009.3
20260505061236 52 360 6.1 12.2 0.00 0.00 0.00 56 1010.3
20260505060746 52 43 8.7 12.2 0.00 0.00 0.00 55 1009.8
20260505060234 52 322 5.2 12.2 0.00 0.00 0.00 55 1009.8
20260505060100 52 18 7.0 13.9 0.00 0.00 0.00 54 1008.7
20260505055746 52 11 7.0 15.6 0.00 0.00 0.00 55 1009.9
20260505055229 52 5 10.4 15.6 0.00 0.00 0.00 54 1010.1
20260505054741 52 20 10.4 16.5 0.00 0.00 0.00 55 1010.0
20260505054554 52 355 10.4 16.5 0.00 0.00 0.00 54 1009.0
20260505054225 52 5 10.4 16.5 0.00 0.00 0.00 54 1010.0
20260505053731 52 12 12.2 18.2 0.00 0.00 0.00 54 1009.8
20260505053243 52 12 11.3 18.2 0.00 0.00 0.00 54 1009.5
20260505053009 52 350 13.0 18.2 0.00 0.00 0.00 55 1008.5
20260505052727 53 12 12.2 18.2 0.00 0.00 0.00 55 1009.4
20260505052238 53 360 13.0 18.2 0.00 0.00 0.00 54 1009.3
20260505051749 53 17 13.0 18.2 0.00 0.00 0.00 55 1009.4
20260505051514 52 24 10.4 16.5 0.00 0.00 0.00 56 1008.5
20260505051233 53 5 10.4 16.5 0.00 0.00 0.00 56 1009.7
20260505050742 53 355 12.2 15.6 0.00 0.00 0.00 55 1010.0
20260505050226 53 19 10.4 17.4 0.00 0.00 0.00 56 1010.0
20260505041723 56 360 13.0 21.7 0.00 0.00 0.00 43 1010.0
20260505041522 55 355 12.2 21.7 0.00 0.00 0.00 43 1009.0
20260505041237 56 348 13.0 23.5 0.00 0.00 0.00 42 1010.0
20260505040747 56 360 14.8 23.5 0.00 0.00 0.00 42 1009.9
20260505040237 56 338 13.9 19.1 0.00 0.00 0.00 42 1009.7
20260505040004 56 348 12.2 20.9 0.00 0.00 0.00 42 1008.6
20260505035749 56 11 13.0 20.9 0.00 0.00 0.00 42 1009.6
20260505035230 56 10 15.6 20.9 0.00 0.00 0.00 42 1009.5
20260505034737 56 347 13.9 21.7 0.00 0.00 0.00 42 1009.5
20260505034515 56 351 13.9 22.6 0.00 0.00 0.00 42 1008.4
20260505034223 57 360 13.0 22.6 0.00 0.00 0.00 42 1009.5
20260505033733 57 348 16.5 22.6 0.00 0.00 0.00 42 1009.3
20260505033245 57 14 13.0 26.9 0.00 0.00 0.00 42 1009.0
20260505033012 56 355 14.8 26.9 0.00 0.00 0.00 42 1007.9
20260505032731 57 355 15.6 27.8 0.00 0.00 0.00 41 1008.9
20260505032241 57 20 19.1 27.8 0.00 0.00 0.00 40 1008.8
20260505031725 57 5 17.4 24.3 0.00 0.00 0.00 41 1009.0
20260505031518 57 15 15.6 26.1 0.00 0.00 0.00 41 1008.0
20260505031257 57 355 16.5 26.1 0.00 0.00 0.00 41 1009.0
20260505030740 57 355 19.1 29.5 0.00 0.00 0.00 41 1008.8
20260505030253 57 349 17.4 29.5 0.00 0.00 0.00 41 1008.7
20260505030038 57 5 20.9 30.4 0.00 0.00 0.00 41 1007.6
20260505025745 57 355 21.7 30.4 0.00 0.00 0.00 41 1008.6
20260505025255 58 14 19.1 30.4 0.00 0.00 0.00 42 1008.4
20260505024746 58 345 15.6 25.2 0.00 0.00 0.00 42 1008.7
20260505024539 57 32 13.9 25.2 0.00 0.00 0.00 42 1007.5
20260505024237 58 5 16.5 26.1 0.00 0.00 0.00 41 1008.5
20260505023742 58 13 19.1 26.1 0.00 0.00 0.00 41 1008.2
20260505023224 58 5 16.5 26.9 0.00 0.00 0.00 41 1008.1
20260505023036 58 346 19.1 26.9 0.00 0.00 0.00 41 1006.7
20260505022736 58 351 21.7 26.9 0.00 0.00 0.00 41 1007.7
20260505022246 58 5 17.4 28.7 0.00 0.00 0.00 41 1007.8
20260505021737 59 355 15.6 31.3 0.00 0.00 0.00 41 1007.7
20260505021515 58 355 23.5 31.3 0.00 0.00 0.00 41 1006.5
20260505021251 59 348 20.0 29.5 0.00 0.00 0.00 41 1007.3
20260505020739 59 26 22.6 29.5 0.00 0.00 0.00 41 1007.5
20260505020246 59 332 19.1 26.1 0.00 0.00 0.00 41 1007.6
20260505020105 59 355 15.6 26.1 0.00 0.00 0.00 41 1006.5
20260505015730 60 360 20.0 32.2 0.00 0.00 0.00 41 1007.7
20260505015242 60 5 17.4 32.2 0.00 0.00 0.00 40 1007.4
20260505014727 61 17 21.7 37.4 0.00 0.00 0.00 39 1007.0
20260505014508 60 355 25.2 37.4 0.00 0.00 0.00 38 1005.9
20260505014240 61 19 28.7 37.4 0.00 0.00 0.00 38 1006.8
20260505013721 62 351 19.1 28.7 0.00 0.00 0.00 38 1006.8
20260505013235 62 15 17.4 28.7 0.00 0.00 0.00 37 1006.8
20260505013007 62 355 14.8 28.7 0.00 0.00 0.00 37 1005.5
20260505012759 62 355 15.6 28.7 0.00 0.00 0.00 37 1006.8
20260505012249 63 5 19.1 28.7 0.00 0.00 0.00 36 1006.7
20260505011732 63 344 18.2 28.7 0.00 0.00 0.00 35 1006.6
20260505011555 63 13 15.6 28.7 0.00 0.00 0.00 35 1005.5
20260505011246 64 346 20.9 28.7 0.00 0.00 0.00 34 1006.6
20260505010728 64 360 17.4 33.9 0.00 0.00 0.00 34 1006.6
20260505010240 65 355 20.9 33.9 0.00 0.00 0.00 33 1006.4
20260505010109 64 5 24.3 33.9 0.00 0.00 0.00 33 1005.1
20260505005725 65 335 14.8 25.2 0.00 0.00 0.00 34 1006.3
20260505005236 66 9 17.4 26.1 0.00 0.00 0.00 33 1006.1
20260505004742 66 327 17.4 26.1 0.00 0.00 0.00 33 1006.1
20260505004556 66 350 15.6 25.2 0.00 0.00 0.00 32 1004.9
20260505004226 67 339 13.9 26.9 0.00 0.00 0.00 33 1006.1
20260505003736 67 5 17.4 27.8 0.00 0.00 0.00 32 1005.9
20260505003249 68 44 21.7 26.1 0.00 0.00 0.00 31 1005.7
20260505003020 68 355 18.2 26.1 0.00 0.00 0.00 31 1004.4
20260505002731 69 343 13.0 28.7 0.00 0.00 0.00 32 1005.8
20260505002243 69 351 20.9 28.7 0.00 0.00 0.00 31 1005.7
20260505001728 69 340 17.4 26.9 0.00 0.00 0.00 32 1005.4
20260505001514 69 355 20.0 26.9 0.00 0.00 0.00 32 1004.3
20260505001242 69 16 18.2 26.9 0.00 0.00 0.00 32 1005.4
20260505000724 70 355 18.2 26.1 0.00 0.00 0.00 31 1005.6
20260505000233 70 333 17.4 24.3 0.00 0.00 0.00 31 1005.6
20260505000016 70 11 14.8 24.3 0.00 0.00 0.00 31 1004.2
20260504235801 71 350 14.8 28.7 0.00 0.00 0.00 30 1005.6
20260504235224 71 5 19.1 29.5 0.00 0.00 0.00 29 1005.5
20260504234737 72 360 18.2 29.5 0.00 0.00 0.00 29 1005.3
20260504234552 72 12 14.8 23.5 0.00 0.00 0.00 30 1004.1
20260504234309 72 360 14.8 23.5 0.00 0.00 0.00 30 1005.4
20260504233729 72 9 14.8 25.2 0.00 0.00 0.00 31 1005.4
20260504233237 72 317 13.9 25.2 0.00 0.00 0.00 30 1005.2
20260504233030 72 355 15.6 25.2 0.00 0.00 0.00 30 1003.8
20260504232748 72 336 14.8 20.9 0.00 0.00 0.00 30 1005.1
20260504232237 73 355 14.8 22.6 0.00 0.00 0.00 29 1005.0
20260504231747 73 360 16.5 23.5 0.00 0.00 0.00 28 1005.0
20260504231515 73 15 14.8 23.5 0.00 0.00 0.00 28 1003.7
20260504231231 73 355 16.5 23.5 0.00 0.00 0.00 29 1004.9
20260504230742 74 355 15.6 26.1 0.00 0.00 0.00 29 1004.8
20260504230253 74 344 15.6 26.1 0.00 0.00 0.00 29 1004.7
20260504230025 74 327 17.4 26.1 0.00 0.00 0.00 29 1003.3
20260504225800 74 5 14.8 24.3 0.00 0.00 0.00 29 1004.6
20260504225224 75 334 16.5 23.5 0.00 0.00 0.00 29 1004.4
20260504224735 75 5 12.2 22.6 0.00 0.00 0.00 30 1004.4
20260504224509 75 349 15.6 22.6 0.00 0.00 0.00 29 1002.9
20260504224309 75 338 14.8 26.1 0.00 0.00 0.00 29 1004.2
20260504223730 76 348 14.8 26.1 0.00 0.00 0.00 29 1004.1
20260504223243 76 323 17.4 25.2 0.00 0.00 0.00 28 1003.9
20260504223043 76 338 17.4 25.2 0.00 0.00 0.00 28 1002.5
20260504222726 77 351 13.9 23.5 0.00 0.00 0.00 28 1003.8
20260504222234 77 360 17.4 23.5 0.00 0.00 0.00 27 1003.7
20260504221745 78 338 15.6 22.6 0.00 0.00 0.00 28 1003.6
20260504221545 77 333 15.6 22.6 0.00 0.00 0.00 28 1002.3
20260504221229 78 346 12.2 22.6 0.00 0.00 0.00 29 1003.4
20260504220739 78 10 16.5 22.6 0.00 0.00 0.00 28 1003.3
20260504220224 78 5 13.9 20.9 0.00 0.00 0.00 28 1003.2
20260504220051 78 347 13.0 20.9 0.00 0.00 0.00 28 1001.9
20260504215736 78 5 13.0 20.9 0.00 0.00 0.00 29 1003.3
20260504215248 79 24 13.0 23.5 0.00 0.00 0.00 31 1003.2
20260504214733 79 16 13.9 23.5 0.00 0.00 0.00 29 1003.4
20260504214559 79 335 16.5 23.5 0.00 0.00 0.00 29 1001.9
20260504214500 79 305 14.8 23.5 0.00 0.00 0.00 28 1001.9
20260504214243 79 333 12.2 20.0 0.00 0.00 0.00 31 1003.3
20260504213725 79 360 13.0 20.9 0.00 0.00 0.00 32 1003.2
20260504213239 79 355 13.9 20.9 0.00 0.00 0.00 30 1003.2
20260504213011 79 333 15.6 20.9 0.00 0.00 0.00 29 1001.9
20260504212749 80 355 12.2 20.9 0.00 0.00 0.00 31 1003.2
20260504212233 80 30 12.2 20.0 0.00 0.00 0.00 33 1003.2
20260504211746 80 338 14.8 21.7 0.00 0.00 0.00 31 1003.1
20260504211557 79 5 13.9 21.7 0.00 0.00 0.00 31 1001.7
20260504211237 80 350 14.8 21.7 0.00 0.00 0.00 32 1003.1
20260504210746 80 29 12.2 22.6 0.00 0.00 0.00 32 1003.0
20260504210238 80 12 16.5 22.6 0.00 0.00 0.00 31 1003.0
20260504210054 80 340 15.6 21.7 0.00 0.00 0.00 33 1001.7
20260504205721 81 351 9.6 16.5 0.00 0.00 0.00 34 1003.0
20260504205232 81 351 12.2 22.6 0.00 0.00 0.00 32 1002.9
20260504204748 81 360 14.8 22.6 0.00 0.00 0.00 33 1002.9
20260504204559 80 340 13.0 20.0 0.00 0.00 0.00 33 1001.5
20260504204232 81 355 12.2 19.1 0.00 0.00 0.00 32 1003.0
20260504203742 81 327 13.0 19.1 0.00 0.00 0.00 32 1002.9
20260504203226 81 355 12.2 18.2 0.00 0.00 0.00 30 1002.8
20260504203106 81 15 13.0 18.2 0.00 0.00 0.00 34 1001.5
20260504202752 81 321 13.9 20.9 0.00 0.00 0.00 32 1002.7
20260504202244 81 336 13.9 20.9 0.00 0.00 0.00 32 1002.9
20260504201728 82 346 13.9 19.1 0.00 0.00 0.00 32 1002.9
20260504201541 82 331 8.7 19.1 0.00 0.00 0.00 31 1001.5
20260504201241 82 321 12.2 20.0 0.00 0.00 0.00 31 1003.1
20260504200724 82 350 13.0 20.9 0.00 0.00 0.00 31 1002.9
20260504200235 82 304 11.3 20.9 0.00 0.00 0.00 31 1002.9
20260504200047 81 360 13.9 20.9 0.00 0.00 0.00 32 1001.5
20260504195747 82 351 13.0 21.7 0.00 0.00 0.00 31 1002.8
20260504195228 83 360 11.3 22.6 0.00 0.00 0.00 33 1002.7
20260504194732 82 319 13.9 18.2 0.00 0.00 0.00 33 1002.8
20260504194600 82 328 11.3 19.1 0.00 0.00 0.00 32 1001.6
20260504194246 83 360 12.2 20.0 0.00 0.00 0.00 31 1002.8
20260504193736 83 346 13.9 20.0 0.00 0.00 0.00 31 1002.7
20260504193246 84 351 10.4 21.7 0.00 0.00 0.00 30 1002.6
20260504193036 84 338 13.0 21.7 0.00 0.00 0.00 30 1001.3
20260504192728 84 319 11.3 17.4 0.00 0.00 0.00 30 1002.5
20260504192239 84 323 7.0 20.0 0.00 0.00 0.00 28 1002.6
20260504191721 85 291 12.2 20.0 0.00 0.00 0.00 28 1002.5
20260504191545 84 308 10.4 18.2 0.00 0.00 0.00 28 1001.3
20260504191231 85 319 10.4 20.9 0.00 0.00 0.00 28 1002.5
20260504190741 84 300 12.2 20.9 0.00 0.00 0.00 28 1002.5
20260504190224 84 321 7.8 18.2 0.00 0.00 0.00 30 1002.4
20260504190108 83 283 11.3 21.7 0.00 0.00 0.00 29 1001.2
20260504185736 83 317 12.2 21.7 0.00 0.00 0.00 28 1002.4
20260504185248 84 318 13.0 22.6 0.00 0.00 0.00 26 1002.3
20260504184739 84 9 11.3 19.1 0.00 0.00 0.00 27 1002.3
20260504184535 84 315 11.3 19.1 0.00 0.00 0.00 28 1001.2
20260504184224 84 313 11.3 17.4 0.00 0.00 0.00 29 1002.4
20260504183733 84 285 10.4 18.2 0.00 0.00 0.00 29 1002.4
20260504183241 83 290 12.2 18.2 0.00 0.00 0.00 29 1002.3
20260504183036 83 303 13.0 20.0 0.00 0.00 0.00 29 1001.2
20260504182722 83 318 11.3 20.0 0.00 0.00 0.00 30 1002.5
20260504182234 83 304 14.8 21.7 0.00 0.00 0.00 28 1002.6
20260504181746 83 303 13.0 21.7 0.00 0.00 0.00 28 1002.6
20260504181524 82 301 11.3 21.7 0.00 0.00 0.00 30 1001.4
20260504181229 83 332 13.9 21.7 0.00 0.00 0.00 29 1002.6
20260504180739 83 294 12.2 19.1 0.00 0.00 0.00 27 1002.6
20260504180222 83 288 12.2 19.1 0.00 0.00 0.00 29 1002.7
20260504180029 83 294 13.0 19.1 0.00 0.00 0.00 28 1001.5
20260504175730 83 313 11.3 19.1 0.00 0.00 0.00 31 1002.6
20260504175240 83 316 13.0 20.9 0.00 0.00 0.00 32 1002.7
20260504174723 83 332 14.8 20.9 0.00 0.00 0.00 29 1002.8
20260504174529 83 309 12.2 20.9 0.00 0.00 0.00 31 1001.6
20260504174236 82 340 13.0 18.2 0.00 0.00 0.00 32 1002.7
20260504173747 82 339 7.8 13.9 0.00 0.00 0.00 32 1002.8
20260504173230 81 319 9.6 16.5 0.00 0.00 0.00 32 1002.9
20260504173027 81 338 9.6 20.0 0.00 0.00 0.00 33 1001.7
20260504172742 81 296 8.7 20.0 0.00 0.00 0.00 33 1003.0
20260504172225 82 277 8.7 13.0 0.00 0.00 0.00 32 1003.0
20260504171733 82 292 8.7 18.2 0.00 0.00 0.00 33 1003.0
20260504171535 81 314 7.8 18.2 0.00 0.00 0.00 34 1001.9
20260504171245 81 292 12.2 18.2 0.00 0.00 0.00 34 1003.2
20260504170727 80 319 8.7 16.5 0.00 0.00 0.00 35 1003.3
20260504170238 80 345 8.7 16.5 0.00 0.00 0.00 37 1003.2
20260504160228 76 279 7.0 11.3 0.00 0.00 0.00 42 1003.2
20260504150741 71 278 5.2 9.6 0.00 0.00 0.00 45 1003.3
20260504150225 71 307 6.1 8.7 0.00 0.00 0.00 43 1003.2
20260504141249 66 303 6.1 10.4 0.00 0.00 0.00 53 1003.5
20260504140731 65 342 6.1 12.2 0.00 0.00 0.00 55 1003.6
20260504140242 65 296 8.7 12.2 0.00 0.00 0.00 53 1003.7
20260504130740 62 325 1.7 3.5 0.00 0.00 0.00 58 1003.3
20260504130222 60 256 0.9 1.7 0.00 0.00 0.00 60 1003.2
20260504120252 51 355 1.7 2.6 0.00 0.00 0.00 68 1003.2
20260504110243 52 171 1.7 2.6 0.00 0.00 0.00 62 1003.0
20260504100242 54 165 4.3 6.1 0.00 0.00 0.00 59 1003.3